Regional Weather Roundup
Issued by NWS

Home | Current Version | Previous Version | Text Only | Print | Product List | Glossary On
Versions: 1 2 3 4 5 6 7 8 9 10 11 12 13 14 15 16 17 18 19 20 21 22 23 24 25 26 27 28 29 30 31 32 33 34 35 36 37 38 39 40 41 42 43 44 45 46 47 48 49 50
000
ASUS43 KLOT 071908
RWRIL

ILLINOIS REGIONAL WEATHER ROUNDUP
NATIONAL WEATHER SERVICE CHICAGO/ROMEOVILLE IL
100 PM CST WED DEC 07 2016

NOTE: "FAIR" INDICATES FEW OR NO CLOUDS BELOW 12,000 FEET WITH NO
SIGNIFICANT WEATHER AND/OR OBSTRUCTIONS TO VISIBILITY.

* THESE STATIONS ARE NOT UNDER NWS QUALITY CONTROL. THEY ALSO MAY NOT
  REPORT WEATHER SUCH AS PRECIPITATION OR FOG.

ILZ001-002-007-009-015-016-024-072000-
NORTHWEST ILLINOIS

CITY           SKY/WX    TMP DP  RH WIND       PRES   REMARKS
MOLINE         PTSUNNY   28  17  63 W12       30.16R WCI  18
STERLING*      CLOUDY    25  19  78 W20       30.12F WCI  11
SAVANNA*       MOSUNNY   25  15  68 W10G18    30.12F WCI  14
$$

ILZ003-004-008-010-011-017-018-072000-
NORTH CENTRAL ILLINOIS

CITY           SKY/WX    TMP DP  RH WIND       PRES   REMARKS
ROCKFORD       CLOUDY    25  16  68 W17       30.10F WCI  12
FREEPORT*      CLOUDY    23  16  74 W17       30.10F WCI   9
ROCHELLE*      CLOUDY    24  18  78 W16       30.10F WCI  11
DE KALB*       CLOUDY    24  18  77 W14       30.08F WCI  12
$$

ILZ005-006-012>014-019>023-072000-
NORTHEAST ILLINOIS

CITY           SKY/WX    TMP DP  RH WIND       PRES   REMARKS
CHICAGO-OHARE  PTSUNNY   27  18  69 W16       30.07F WCI  15
CHICAGO-MIDWAY PTSUNNY   30  18  60 SW14      30.09S WCI  19
AURORA         MOSUNNY   26  19  74 W15       30.10F WCI  14
LANSING*       CLOUDY    28  23  79 W13       30.10F WCI  18
JOLIET*        PTSUNNY   30  22  73 W9        30.12S WCI  22
WAUKEGAN       SUNNY     28  18  66 W10G20    30.03S WCI  19
DUPAGE AIRPORT MOSUNNY   25  16  68 W20       30.09S WCI  11
KANKAKEE*      CLOUDY    30  23  74 W12G17    30.13F WCI  21
WHEELING       SUNNY     28  17  63 W10       30.08S WCI  19
MORRIS*        MOSUNNY   28  21  73 W16       30.11F WCI  17
ROMEOVILLE*    MOSUNNY   27  23  84 W14       30.10F WCI  16
NORTHERLY ISL    N/A     31  20  63 W9          N/A  WCI  23
$$

LMZ740>746-072000-
SOUTHERN LAKE MICHIGAN

STATION/POSITION SKY/WX   TEMP    WIND        PRES    VSBY  WAVE
                          AIR SEA DIR/SP/G                  HT/PER
                          (F)     (DEG/KT/KT) (MB)    (MI)  (FT/S)
HARRISON CRIB              30     250/ 12/ 14   N/A
BURNHAM HARBOR             31     110/  5/ 15   N/A
CALUMET HARBOR             29     210/ 12/ 16 1018.1F
BURNS HARBOR               30     230/ 10/ 17 1019.0F
MICHIGAN CITY              30     200/ 12/ 15   N/A
$$

ILZ025>027-034>036-040-047-049-050-058-095>099-072000-
WEST-CENTRAL ILLINOIS

CITY           SKY/WX    TMP DP  RH WIND       PRES   REMARKS
QUINCY         CLOUDY    32  16  51 W13       30.21F WCI  22
GALESBURG*     PTSUNNY   29  19  66 W16       30.17S WCI  18
MACOMB*        MOSUNNY   30  20  64 W13       30.21F WCI  20
JACKSONVILLE*  CLOUDY    32  19  58 W10       30.20S WCI  24
PITTSFIELD*    CLOUDY    33  18  53 W9        30.22S WCI  25
$$

ILZ028>032-037-038-041>044-048-051>054-059>061-072000-
CENTRAL ILLINOIS

CITY           SKY/WX    TMP DP  RH WIND       PRES   REMARKS
PONTIAC        PTSUNNY   32  25  76 W12       30.14F WCI  23
BLOOMINGTON    MOSUNNY   33  21  61 W13       30.13F WCI  24
DECATUR        CLOUDY    34  20  56 W13       30.17F WCI  25
PEORIA         CLOUDY    31  18  58 W10       30.17F WCI  22
LACON*         CLOUDY    29  18  63 W9        30.14F WCI  21
LINCOLN*       CLOUDY    34  21  58 W6        30.18S WCI  29
SPRINGFIELD    MOSUNNY   34  21  59 W13       30.19F WCI  25
TAYLORVILLE    PTSUNNY   33  21  61 W10       30.19F WCI  25
$$

ILZ033-039-045-046-055>057-062-063-072000-
EAST-CENTRAL ILLINOIS

CITY           SKY/WX    TMP DP  RH WIND       PRES   REMARKS
CHAMPAIGN      PTSUNNY   33  22  63 W12       30.16S WCI  24
RANTOUL*       PTSUNNY   35  26  70 W12       30.14S WCI  26
MATTOON        CLOUDY    33  20  58 W12       30.17R WCI  24
PARIS*         CLOUDY    33  25  70 W12       30.17S WCI  25
$$

ILZ079-100>102-072000-
SOUTHWEST ILLINOIS

CITY           SKY/WX    TMP DP  RH WIND       PRES   REMARKS
ALTON          CLOUDY    34  19  55 W8        30.23S WCI  27
BELLEVILLE     CLOUDY    38  18  43 NW5       30.21S WCI  35
CAHOKIA*       CLOUDY    39  16  39 W6        30.22F WCI  35
SPARTA*        CLOUDY    37  20  50 NW3       30.23S
$$

ILZ064>066-069>071-074>076-080>082-084>086-088>090-092>094-072000-
SOUTH-CENTRAL ILLINOIS

CITY           SKY/WX    TMP DP  RH WIND       PRES   REMARKS
CARBONDALE     CLOUDY    39  22  50 VRB5      30.21F
CAIRO*         PTSUNNY   42  22  46 CALM      30.19F
EFFINGHAM*     CLOUDY    36  23  59 W8        30.20F WCI  29
MARION         CLOUDY    39  21  48 CALM      30.20F
CENTRALIA*     CLOUDY    37  23  56 CALM      30.20S
SALEM*         CLOUDY    37  22  53 W8        30.19F WCI  31
METROPOLIS*    SUNNY     44  22  42 SW3       30.19F
$$

ILZ067-068-072-073-078-083-087-091-072000-
SOUTHEAST ILLINOIS

CITY           SKY/WX    TMP DP  RH WIND       PRES   REMARKS
LAWRENCEVILLE  CLOUDY    37  22  54 NW8       30.19F WCI  31
FLORA*         CLOUDY    38  23  55 NW6       30.20F WCI  33
FAIRFIELD*     CLOUDY    37  22  56 W3        30.19F
HARRISBURG*    CLOUDY    40  23  51 NW5       30.19F
ROBINSON*      CLOUDY    35  23  62 W5        30.19F WCI  31
CARMI*         CLOUDY    38  22  51 NW5       30.18F WCI  35
$$

ABBREVIATIONS USED IN REMARKS
   TC - TEMPERATURE IN CELSIUS
  WCI - WIND CHILL INDEX
   HX - HEAT INDEX
  VSB - VISIBILITY
$$




USA.gov is the U.S. government's official web portal to all federal, state and local government web resources and services.